User: anonymous   Login
Location: Bonny Doon Airfield
(37.0704°N, 122.1252°W)
Time: 10:26:57
(UTC-07:00)
Language:

BREEZE M DEB (TANK) - Orbit

View from above orbital plane
View from above orbital plane
View from above satellite
View from above satellite

Ground track
Ground track

The orbit data is extracted from the following two-line orbital elements,

1 33437U 08057B   16120.48191680  .00001833  00000-0  48957-3 0  9998
2 33437  49.5522 239.8397 4993083 134.9466 278.5411  5.59395277150690
Epoch (UTC): 29 April 2016 11:33:57
Eccentricity: 0.4993083
inclination: 49.5522°
perigee height: 333 km
apogee height: 13719 km
right ascension of ascending node: 239.8397°
argument of perigee: 134.9466°
revolutions per day: 5.59395277
mean anomaly at epoch: 278.5411°
orbit number at epoch: 15069

The dashed part of the orbit path shows where the satellite is in the earth's shadow,  

DLR